This is the latest recevied weather packets stored in our database for station/object N3TJJ-2. If no packets are shown the sender has not sent any weather packets the latest 10 day(s).
| Time | Temp. | Humidity | Pressure | Rain* | Wind** | Luminosity | Snow |
|---|---|---|---|---|---|---|---|
| 1788287117 | 30.56° C | 74% | 1016 hPa | 0 mm | - | - | - |
| 1788286789 | 30.56° C | 73% | 1016 hPa | 0 mm | - | - | - |
| 1788286382 | 30.56° C | 73% | 1016.1 hPa | 0 mm | - | - | - |
| 1788286054 | 30.56° C | 74% | 1016.1 hPa | 0 mm | - | - | - |
| 1788285647 | 30° C | 74% | 1016 hPa | 0 mm | - | - | - |
| 1788285290 | 30° C | 74% | 1016.1 hPa | 0 mm | - | - | - |
| 1788284973 | 30° C | 74% | 1016 hPa | 0 mm | - | - | - |
| 1788284808 | 30° C | 74% | 1015.9 hPa | 0 mm | - | - | - |
| 1788284347 | 30° C | 75% | 1016 hPa | 0 mm | - | - | - |
| 1788283552 | 29.44° C | 74% | 1016 hPa | 0 mm | - | - | - |
| 1788283301 | 30° C | 74% | 1016.2 hPa | 0 mm | - | - | - |
| 1788282787 | 30° C | 75% | 1016.2 hPa | 0 mm | - | - | - |
| 1788282410 | 29.44° C | 75% | 1016.2 hPa | 0 mm | - | - | - |
| 1788282055 | 29.44° C | 75% | 1016.4 hPa | 0 mm | - | - | - |
| 1788281687 | 29.44° C | 75% | 1016.5 hPa | 0 mm | - | - | - |
| 1788281331 | 28.89° C | 75% | 1016.5 hPa | 0 mm | - | - | - |
| 1788281003 | 28.33° C | 75% | 1016.6 hPa | 0 mm | - | - | - |
| 1788280617 | 28.33° C | 72% | 1016.6 hPa | 0 mm | - | - | - |
| 1788280247 | 27.78° C | 73% | 1016.6 hPa | 0 mm | - | - | - |
| 1788279888 | 27.22° C | 69% | 1016.8 hPa | 0 mm | - | - | - |
| 1788279540 | 26.67° C | 70% | 1017 hPa | 0 mm | - | - | - |
| 1788279181 | 26.67° C | 68% | 1017.1 hPa | 0 mm | - | - | - |
| 1788278846 | 26.11° C | 64% | 1017.1 hPa | 0 mm | - | - | - |
| 1788278450 | 25.56° C | 62% | 1017.3 hPa | 0 mm | - | - | - |
| 1788278095 | 25.56° C | 62% | 1017.3 hPa | 0 mm | - | - | - |
* Rain latest hour (hover to see other rain measurements)
** Current wind speed in m/s (hover to see current wind gust speed)